FW6908 Weather Reports


time (UTC)temp
F
wind
direction
speed
knots
gust
knots
rain 1hr
in
rain 24hr
in
rain mn
in
humidity
%
barometer
mb
20260906052548 74 21 2.6 4.3 0.00 0.00 0.00 51 1017.9
20260906052041 74 32 2.6 4.3 0.00 0.00 0.00 51 1017.9
20260906051540 75 19 1.7 4.3 0.00 0.00 0.00 50 1018.0
20260906051037 74 74 1.7 5.2 0.00 0.00 0.00 50 1017.9
20260906050535 73 34 1.7 5.2 0.00 0.00 0.00 51 1018.0
20260906050046 73 36 1.7 5.2 0.00 0.00 0.00 51 1017.9
20260906045535 72 22 1.7 5.2 0.00 0.00 0.00 51 1017.9
20260906045032 72 47 1.7 4.3 0.00 0.00 0.00 51 1017.8
20260906044532 72 43 2.6 4.3 0.00 0.00 0.00 52 1017.9
20260906044032 72 104 0.0 5.2 0.00 0.00 0.00 51 1017.8
20260906043529 72 84 0.9 5.2 0.00 0.00 0.00 50 1017.8
20260906043031 72 55 0.9 4.3 0.00 0.00 0.00 50 1017.7
20260906042525 72 71 1.7 7.0 0.00 0.00 0.00 50 1017.6
20260906042024 72 48 1.7 8.7 0.00 0.00 0.00 50 1017.6
20260906041524 71 67 5.2 8.7 0.00 0.00 0.00 51 1017.6
20260906041024 70 47 5.2 7.8 0.00 0.00 0.00 51 1017.5
20260906040523 70 49 5.2 7.8 0.00 0.00 0.00 52 1017.5
20260906040023 69 59 4.3 7.8 0.00 0.00 0.00 52 1017.5
20260906035522 69 53 3.5 6.1 0.00 0.00 0.00 53 1017.5
20260906035022 69 38 3.5 7.0 0.00 0.00 0.00 53 1017.4
20260906034522 69 360 3.5 8.7 0.00 0.00 0.00 53 1017.5
20260906034020 70 14 2.6 8.7 0.00 0.00 0.00 52 1017.5
20260906033521 71 62 2.6 7.8 0.00 0.00 0.00 50 1017.4
20260906033024 71 89 5.2 7.8 0.00 0.00 0.00 51 1017.4
20260906032520 70 59 4.3 7.0 0.00 0.00 0.00 52 1017.4
20260906032021 71 9 2.6 7.0 0.00 0.00 0.00 51 1017.3
20260906031520 72 68 1.7 4.3 0.00 0.00 0.00 50 1017.3
20260906031019 71 86 2.6 4.3 0.00 0.00 0.00 50 1017.4
20260906030520 71 61 1.7 5.2 0.00 0.00 0.00 50 1017.3
20260906030022 70 50 3.5 7.0 0.00 0.00 0.00 51 1017.3
20260906025519 70 71 3.5 7.0 0.00 0.00 0.00 52 1017.3
20260906025019 70 65 1.7 6.1 0.00 0.00 0.00 52 1017.2
20260906024518 70 34 1.7 7.0 0.00 0.00 0.00 52 1017.1
20260906024018 70 59 2.6 5.2 0.00 0.00 0.00 52 1017.1
20260906023518 70 38 2.6 7.8 0.00 0.00 0.00 52 1017.1
20260906023017 70 59 3.5 7.8 0.00 0.00 0.00 52 1017.0
20260906022516 71 26 3.5 7.8 0.00 0.00 0.00 50 1017.0
20260906022015 72 88 3.5 7.8 0.00 0.00 0.00 49 1017.1
20260906021515 71 86 3.5 7.8 0.00 0.00 0.00 50 1017.1
20260906021020 71 28 1.7 7.8 0.00 0.00 0.00 50 1017.2
20260906020515 71 61 4.3 7.8 0.00 0.00 0.00 50 1017.1
20260906020015 71 55 3.5 7.8 0.00 0.00 0.00 50 1017.1
20260906015514 71 40 4.3 7.8 0.00 0.00 0.00 50 1017.1
20260906015014 70 53 2.6 7.8 0.00 0.00 0.00 52 1017.0
20260906014513 69 55 5.2 7.8 0.00 0.00 0.00 52 1017.2
20260906014013 70 24 3.5 4.3 0.00 0.00 0.00 52 1017.1
20260906013511 71 36 1.7 3.5 0.00 0.00 0.00 51 1017.0
20260906013011 72 30 2.6 5.2 0.00 0.00 0.00 50 1017.2
20260906012510 73 96 1.7 6.1 0.00 0.00 0.00 48 1017.1
20260906012010 72 94 3.5 6.1 0.00 0.00 0.00 49 1017.1
20260906011510 72 88 0.9 3.5 0.00 0.00 0.00 49 1017.3
20260906011010 72 88 0.0 4.3 0.00 0.00 0.00 48 1017.3
20260906010509 71 82 2.6 5.2 0.00 0.00 0.00 49 1017.2
20260906010008 71 62 3.5 5.2 0.00 0.00 0.00 50 1017.2
20260906005508 71 34 3.5 5.2 0.00 0.00 0.00 50 1017.3
20260906005008 70 35 3.5 7.8 0.00 0.00 0.00 50 1017.1
20260906004508 70 45 5.2 7.8 0.00 0.00 0.00 51 1017.2
20260906004007 70 35 5.2 7.8 0.00 0.00 0.00 50 1017.2
20260906003506 71 17 3.5 5.2 0.00 0.00 0.00 50 1017.0
20260906003005 71 49 2.6 7.0 0.00 0.00 0.00 49 1017.1
20260906002503 72 5 2.6 4.3 0.00 0.00 0.00 48 1017.1
20260906002003 73 51 2.6 4.3 0.00 0.00 0.00 47 1017.1
20260906001507 73 84 2.6 4.3 0.00 0.00 0.00 48 1017.1
20260906001002 73 10 1.7 6.1 0.00 0.00 0.00 48 1017.1
20260906000601 73 105 3.5 7.8 0.00 0.00 0.00 48 1017.0
20260906000105 72 46 5.2 7.8 0.00 0.00 0.00 49 1017.1
20260905235559 72 36 2.6 4.3 0.00 0.00 0.00 49 1017.1
20260905235059 72 69 2.6 5.2 0.00 0.00 0.00 48 1017.1
20260905234558 74 11 3.5 7.8 0.00 0.00 0.00 47 1017.2
20260905234057 74 32 3.5 7.0 0.00 0.00 0.00 45 1017.2
20260905233557 74 82 4.3 7.8 0.00 0.00 0.00 46 1017.3
20260905233057 73 66 4.3 7.8 0.00 0.00 0.00 46 1017.4
20260905232555 73 62 2.6 5.2 0.00 0.00 0.00 46 1017.4
20260905232055 73 46 2.6 5.2 0.00 0.00 0.00 47 1017.6
20260905231554 73 25 3.5 5.2 0.00 0.00 0.00 47 1017.6
20260905231054 74 91 2.6 5.2 0.00 0.00 0.00 46 1017.5
20260905230553 74 24 2.6 3.5 0.00 0.00 0.00 46 1017.6
20260905230054 74 56 1.7 6.1 0.00 0.00 0.00 46 1017.7
20260905225553 73 59 2.6 7.8 0.00 0.00 0.00 46 1017.7
20260905225052 73 30 4.3 7.8 0.00 0.00 0.00 46 1017.7
20260905224554 73 35 2.6 4.3 0.00 0.00 0.00 46 1017.7
20260905224050 73 26 1.7 3.5 0.00 0.00 0.00 47 1017.7
20260905223552 74 33 1.7 3.5 0.00 0.00 0.00 47 1017.7
20260905223050 74 20 1.7 3.5 0.00 0.00 0.00 47 1017.7
20260905222549 74 13 1.7 2.6 0.00 0.00 0.00 46 1017.8
20260905222048 75 90 0.0 1.7 0.00 0.00 0.00 45 1017.8
20260905221547 76 92 0.0 2.6 0.00 0.00 0.00 44 1017.7
20260905221047 76 91 0.0 3.5 0.00 0.00 0.00 43 1017.7
20260905220547 76 91 1.7 4.3 0.00 0.00 0.00 43 1017.6
20260905220047 76 70 2.6 4.3 0.00 0.00 0.00 43 1017.6
20260905215547 76 69 0.0 4.3 0.00 0.00 0.00 43 1017.6
20260905215046 75 50 1.7 4.3 0.00 0.00 0.00 43 1017.7
20260905214545 75 30 1.7 4.3 0.00 0.00 0.00 44 1017.7
20260905214045 75 24 3.5 8.7 0.00 0.00 0.00 45 1017.7
20260905213546 74 17 3.5 8.7 0.00 0.00 0.00 45 1017.8
20260905213043 75 13 2.6 3.5 0.00 0.00 0.00 44 1017.8
20260905212542 76 42 0.9 2.6 0.00 0.00 0.00 44 1017.8
20260905212040 77 46 0.9 3.5 0.00 0.00 0.00 43 1017.8
20260905211549 77 5 1.7 3.5 0.00 0.00 0.00 42 1017.8
20260905211038 78 105 0.9 5.2 0.00 0.00 0.00 41 1017.8
20260905210539 77 126 1.7 7.0 0.00 0.00 0.00 42 1017.9
20260905210039 77 321 0.9 6.1 0.00 0.00 0.00 42 1017.9
20260905205536 77 68 2.6 4.3 0.00 0.00 0.00 42 1018.0
20260905205036 77 61 2.6 7.8 0.00 0.00 0.00 42 1017.9
20260905204538 77 57 2.6 7.8 0.00 0.00 0.00 42 1018.0
20260905204036 77 51 1.7 2.6 0.00 0.00 0.00 42 1018.0
20260905203535 77 31 1.7 2.6 0.00 0.00 0.00 43 1017.9
20260905203036 78 336 0.9 2.6 0.00 0.00 0.00 42 1017.9
20260905202535 78 26 0.0 2.6 0.00 0.00 0.00 42 1017.9
20260905202035 78 27 0.0 4.3 0.00 0.00 0.00 41 1017.9
20260905201535 79 17 1.7 4.3 0.00 0.00 0.00 41 1017.9
20260905201035 79 61 1.7 3.5 0.00 0.00 0.00 40 1017.9
20260905200534 79 52 0.9 3.5 0.00 0.00 0.00 40 1017.9
20260905200039 79 360 0.0 2.6 0.00 0.00 0.00 40 1017.9
20260905195534 79 355 0.9 2.6 0.00 0.00 0.00 39 1018.0
20260905195034 79 355 0.9 2.6 0.00 0.00 0.00 40 1018.1
20260905194533 79 355 0.0 1.7 0.00 0.00 0.00 40 1018.0
20260905194033 79 355 0.0 3.5 0.00 0.00 0.00 40 1018.1
20260905193535 80 360 0.9 3.5 0.00 0.00 0.00 40 1018.1
20260905193031 80 28 0.0 3.5 0.00 0.00 0.00 40 1018.1
20260905192531 80 31 0.9 5.2 0.00 0.00 0.00 39 1018.1
20260905192030 81 11 2.6 6.1 0.00 0.00 0.00 39 1018.1
20260905191531 81 38 1.7 2.6 0.00 0.00 0.00 39 1018.1
20260905191031 81 117 0.9 2.6 0.00 0.00 0.00 38 1018.0
20260905190530 81 118 0.9 3.5 0.00 0.00 0.00 38 1018.0
20260905190030 81 121 0.9 5.2 0.00 0.00 0.00 38 1018.0
20260905185530 81 111 1.7 5.2 0.00 0.00 0.00 38 1018.0
20260905185030 81 164 0.9 4.3 0.00 0.00 0.00 39 1017.9
20260905184545 82 277 0.0 2.6 0.00 0.00 0.00 38 1017.9
20260905184029 82 269 1.7 2.6 0.00 0.00 0.00 38 1018.0
20260905183532 82 302 0.9 2.6 0.00 0.00 0.00 38 1017.9
20260905183041 82 300 0.0 2.6 0.00 0.00 0.00 38 1017.8
20260905182533 82 65 0.0 7.8 0.00 0.00 0.00 38 1017.7
20260905182029 82 82 2.6 7.8 0.00 0.00 0.00 38 1017.7
20260905181532 82 71 2.6 8.7 0.00 0.00 0.00 38 1017.7
20260905181028 82 73 4.3 8.7 0.00 0.00 0.00 38 1017.6
20260905180528 83 67 2.6 7.0 0.00 0.00 0.00 38 1017.5
20260905180034 83 76 3.5 7.8 0.00 0.00 0.00 38 1017.6
20260905175528 82 103 4.3 7.8 0.00 0.00 0.00 38 1017.6
20260905175027 83 86 5.2 8.7 0.00 0.00 0.00 38 1017.6
20260905174527 83 76 2.6 8.7 0.00 0.00 0.00 38 1017.5
20260905174027 83 76 4.3 11.3 0.00 0.00 0.00 38 1017.5
20260905173527 83 82 3.5 9.6 0.00 0.00 0.00 38 1017.4
20260905173028 83 71 4.3 12.2 0.00 0.00 0.00 38 1017.4
20260905172527 83 53 5.2 12.2 0.00 0.00 0.00 37 1017.4
20260905172028 84 113 6.1 12.2 0.00 0.00 0.00 37 1017.4
20260905171526 84 108 6.1 11.3 0.00 0.00 0.00 37 1017.2
20260905171029 84 66 7.0 11.3 0.00 0.00 0.00 37 1017.2
20260905170526 84 69 5.2 11.3 0.00 0.00 0.00 37 1017.2
20260905170026 85 98 7.0 13.0 0.00 0.00 0.00 37 1017.2
20260905165525 85 67 7.8 13.0 0.00 0.00 0.00 37 1017.3
20260905165028 85 74 4.3 12.2 0.00 0.00 0.00 37 1017.3
20260905164526 85 69 7.8 12.2 0.00 0.00 0.00 37 1017.3
20260905164025 86 69 5.2 11.3 0.00 0.00 0.00 37 1017.4
20260905163524 86 66 7.0 11.3 0.00 0.00 0.00 36 1017.4
20260905163024 86 83 6.1 11.3 0.00 0.00 0.00 36 1017.2
20260905162526 87 82 7.8 11.3 0.00 0.00 0.00 35 1017.2
20260905162023 87 71 6.1 11.3 0.00 0.00 0.00 35 1017.2
20260905161524 87 73 8.7 11.3 0.00 0.00 0.00 34 1017.3
20260905161026 88 80 5.2 11.3 0.00 0.00 0.00 33 1017.4
20260905160523 88 59 4.3 10.4 0.00 0.00 0.00 32 1017.4
20260905160028 88 38 4.3 13.0 0.00 0.00 0.00 32 1017.4
20260905155522 88 30 8.7 16.5 0.00 0.00 0.00 32 1017.3
20260905155022 88 19 9.6 16.5 0.00 0.00 0.00 32 1017.3
20260905154522 89 36 7.0 14.8 0.00 0.00 0.00 32 1017.3
20260905154022 88 20 7.8 15.6 0.00 0.00 0.00 32 1017.4
20260905153524 88 15 9.6 15.6 0.00 0.00 0.00 32 1017.4
20260905153021 88 20 7.0 13.9 0.00 0.00 0.00 32 1017.4
20260905152522 89 5 7.8 15.6 0.00 0.00 0.00 32 1017.4
20260905152021 89 28 9.6 17.4 0.00 0.00 0.00 32 1017.4
20260905151523 90 77 8.7 16.5 0.00 0.00 0.00 31 1017.3
20260905151023 90 31 5.2 19.1 0.00 0.00 0.00 31 1017.3
20260905150519 90 360 9.6 19.1 0.00 0.00 0.00 31 1017.3
20260905150018 90 38 7.8 13.9 0.00 0.00 0.00 32 1017.3
20260905145516 90 15 9.6 13.9 0.00 0.00 0.00 32 1017.3
20260905145016 90 40 7.0 13.9 0.00 0.00 0.00 31 1017.3
20260905144516 90 68 6.1 16.5 0.00 0.00 0.00 31 1017.2
20260905144015 90 88 7.8 15.6 0.00 0.00 0.00 31 1017.3
20260905143514 90 65 7.8 15.6 0.00 0.00 0.00 31 1017.3
20260905143015 90 360 7.0 13.0 0.00 0.00 0.00 31 1017.2
20260905142513 90 54 9.6 13.0 0.00 0.00 0.00 31 1017.2
20260905142013 90 11 8.7 15.6 0.00 0.00 0.00 30 1017.3
20260905141513 90 53 7.0 15.6 0.00 0.00 0.00 30 1017.3
20260905141011 91 18 7.8 12.2 0.00 0.00 0.00 31 1017.2
20260905140511 90 61 7.0 18.2 0.00 0.00 0.00 32 1017.2
20260905140011 90 40 7.8 18.2 0.00 0.00 0.00 31 1017.2
20260905135510 90 106 6.1 14.8 0.00 0.00 0.00 32 1017.1
20260905135013 90 62 9.6 17.4 0.00 0.00 0.00 32 1017.1
20260905134509 90 75 8.7 17.4 0.00 0.00 0.00 32 1017.1
20260905134007 91 45 8.7 14.8 0.00 0.00 0.00 32 1017.2
20260905133506 90 54 6.1 14.8 0.00 0.00 0.00 34 1017.2
20260905133010 90 98 7.0 14.8 0.00 0.00 0.00 33 1017.2
20260905132505 91 47 7.0 14.8 0.00 0.00 0.00 34 1017.4
20260905132004 90 19 6.1 14.8 0.00 0.00 0.00 33 1017.3
20260905131506 91 29 6.1 12.2 0.00 0.00 0.00 33 1017.3
20260905131002 91 19 4.3 13.0 0.00 0.00 0.00 33 1017.3
20260905130501 91 46 7.8 17.4 0.00 0.00 0.00 33 1017.3
20260905130100 90 15 4.3 17.4 0.00 0.00 0.00 33 1017.3
20260905125601 91 35 7.8 16.5 0.00 0.00 0.00 33 1017.2
20260905125059 90 65 11.3 17.4 0.00 0.00 0.00 33 1017.3
20260905124558 90 91 9.6 17.4 0.00 0.00 0.00 33 1017.4
20260905124057 91 69 9.6 14.8 0.00 0.00 0.00 33 1017.4
20260905123556 90 9 7.0 14.8 0.00 0.00 0.00 33 1017.3
20260905123058 90 65 7.0 17.4 0.00 0.00 0.00 33 1017.5
20260905122554 90 72 10.4 20.0 0.00 0.00 0.00 33 1017.4
20260905122058 90 355 12.2 20.0 0.00 0.00 0.00 32 1017.6
20260905121557 90 98 7.0 18.2 0.00 0.00 0.00 32 1017.6
20260905121052 90 89 8.7 18.2 0.00 0.00 0.00 33 1017.6
20260905120553 90 79 10.4 18.2 0.00 0.00 0.00 33 1017.6
20260905120050 90 49 11.3 18.2 0.00 0.00 0.00 34 1017.7
20260905115549 90 87 11.3 20.0 0.00 0.00 0.00 34 1017.7
20260905115049 89 85 11.3 20.0 0.00 0.00 0.00 35 1017.7
20260905114549 89 78 8.7 20.0 0.00 0.00 0.00 35 1017.7
20260905114047 89 86 9.6 17.4 0.00 0.00 0.00 34 1017.8
20260905113648 89 29 7.8 17.4 0.00 0.00 0.00 35 1017.8
20260905113050 89 126 9.6 17.4 0.00 0.00 0.00 35 1017.8
20260905112547 90 50 10.4 17.4 0.00 0.00 0.00 34 1017.8
20260905112046 89 60 7.0 13.0 0.00 0.00 0.00 36 1017.7
20260905111625 89 82 5.2 18.2 0.00 0.00 0.00 36 1017.8
20260905111044 89 85 12.2 18.2 0.00 0.00 0.00 35 1017.8
20260905110545 89 58 10.4 20.9 0.00 0.00 0.00 35 1017.8
20260905110044 89 67 10.4 20.9 0.00 0.00 0.00 36 1017.8
20260905105543 89 21 10.4 19.1 0.00 0.00 0.00 35 1017.8
20260905105044 89 39 11.3 20.9 0.00 0.00 0.00 35 1017.8
20260905104541 89 105 12.2 20.9 0.00 0.00 0.00 35 1017.7
20260905104044 89 61 8.7 19.1 0.00 0.00 0.00 35 1017.7
20260905103540 89 88 10.4 19.1 0.00 0.00 0.00 35 1017.7
20260905103041 89 18 8.7 17.4 0.00 0.00 0.00 35 1017.7
20260905102539 88 66 8.7 19.1 0.00 0.00 0.00 35 1017.7
20260905102039 89 19 9.6 19.1 0.00 0.00 0.00 35 1017.8
20260905101549 88 67 10.4 24.3 0.00 0.00 0.00 35 1017.7
20260905101038 88 95 14.8 24.3 0.00 0.00 0.00 35 1017.8
20260905100538 88 90 11.3 18.2 0.00 0.00 0.00 35 1017.8
20260905100046 89 360 11.3 17.4 0.00 0.00 0.00 35 1017.7
20260905095537 88 33 11.3 22.6 0.00 0.00 0.00 35 1017.8
20260905095036 88 47 8.7 25.2 0.00 0.00 0.00 35 1017.8
20260905094536 88 32 11.3 25.2 0.00 0.00 0.00 35 1017.9
20260905094035 88 41 9.6 20.9 0.00 0.00 0.00 35 1017.8
20260905093534 88 52 13.0 20.9 0.00 0.00 0.00 36 1017.9
20260905093033 88 68 13.9 20.0 0.00 0.00 0.00 35 1017.9
20260905092533 88 49 10.4 19.1 0.00 0.00 0.00 36 1017.9
20260905092031 87 23 13.0 20.0 0.00 0.00 0.00 37 1017.9
20260905091534 88 5 8.7 18.2 0.00 0.00 0.00 37 1018.1
20260905091029 87 77 11.3 22.6 0.00 0.00 0.00 37 1018.2
20260905090527 87 24 13.9 22.6 0.00 0.00 0.00 36 1018.2
20260905090026 87 5 7.8 21.7 0.00 0.00 0.00 38 1018.2
20260905085530 87 52 8.7 21.7 0.00 0.00 0.00 38 1018.2
20260905085026 87 14 12.2 19.1 0.00 0.00 0.00 38 1018.1
20260905084522 87 355 7.8 19.1 0.00 0.00 0.00 39 1018.2
20260905084021 86 48 10.4 19.1 0.00 0.00 0.00 39 1018.2
20260905083520 86 46 11.3 19.1 0.00 0.00 0.00 39 1018.3
20260905083019 86 32 11.3 19.1 0.00 0.00 0.00 39 1018.4
20260905082517 86 31 13.9 20.0 0.00 0.00 0.00 39 1018.4
20260905082018 86 34 9.6 20.0 0.00 0.00 0.00 39 1018.3
20260905081515 86 75 8.7 19.1 0.00 0.00 0.00 39 1018.3
20260905081014 85 40 11.3 20.9 0.00 0.00 0.00 39 1018.5
20260905080514 85 36 11.3 20.9 0.00 0.00 0.00 40 1018.4
20260905080012 85 5 12.2 21.7 0.00 0.00 0.00 39 1018.4
20260905075511 85 59 12.2 21.7 0.00 0.00 0.00 39 1018.3
20260905075010 85 12 13.0 18.2 0.00 0.00 0.00 41 1018.2
20260905074509 85 19 9.6 13.0 0.00 0.00 0.00 41 1018.1
20260905074006 85 11 7.8 16.5 0.00 0.00 0.00 41 1018.2
20260905073505 84 23 8.7 16.5 0.00 0.00 0.00 41 1018.2
20260905073004 84 16 11.3 19.1 0.00 0.00 0.00 42 1018.0
20260905072505 84 5 10.4 19.1 0.00 0.00 0.00 42 1018.0
20260905072001 84 360 8.7 18.2 0.00 0.00 0.00 42 1018.1
20260905071601 83 46 9.6 18.2 0.00 0.00 0.00 42 1017.9
20260905071102 83 17 7.8 18.2 0.00 0.00 0.00 42 1018.0
20260905070558 83 30 11.3 18.2 0.00 0.00 0.00 42 1018.0
20260905070056 84 32 7.8 20.0 0.00 0.00 0.00 41 1017.9
20260905065554 83 72 9.6 20.0 0.00 0.00 0.00 42 1017.9
20260905065054 84 40 9.6 15.6 0.00 0.00 0.00 41 1017.9
20260905064552 83 16 7.0 15.6 0.00 0.00 0.00 41 1017.8
20260905064050 83 58 5.2 18.2 0.00 0.00 0.00 42 1017.8
20260905063548 83 26 7.8 18.2 0.00 0.00 0.00 42 1017.8
20260905063047 83 73 9.6 17.4 0.00 0.00 0.00 42 1017.7
20260905062545 83 336 7.0 17.4 0.00 0.00 0.00 44 1017.7
20260905062044 82 36 11.3 17.4 0.00 0.00 0.00 43 1017.8
20260905061544 82 49 11.3 17.4 0.00 0.00 0.00 44 1017.8
20260905061042 82 57 11.3 17.4 0.00 0.00 0.00 44 1017.8
20260905060541 82 15 7.0 16.5 0.00 0.00 0.00 44 1017.8
20260905060040 82 50 10.4 16.5 0.00 0.00 0.00 43 1017.9
20260905055543 82 40 10.4 16.5 0.00 0.00 0.00 44 1017.9
20260905055041 82 64 7.0 14.8 0.00 0.00 0.00 44 1017.8
20260905054539 81 50 4.3 10.4 0.00 0.00 0.00 47 1017.8
20260905054035 80 344 0.0 2.6 0.00 0.00 0.00 50 1017.8
20260905053534 79 161 0.9 2.6 0.00 0.00 0.00 52 1017.7
20260905053032 79 177 0.0 2.6 0.00 0.00 0.00 53 1017.7